Location: Forli
(44.2227°N, 12.0407°E)
Time: 16:09:59
(UTC+02:00)

DX 1 - Visible Passes

Search period start: 11 April 2026 00:00
Search period end: 21 April 2026 00:00
Orbit: 593 x 604 km, 98.4° (Epoch: 11 April)

Date Brightness Start Highest point End Pass type
(mag) Time Alt. Az. Time Alt. Az. Time Alt. Az.
11 Apr ? 04:08:20 10° NNE 04:12:32 70° ESE 04:12:53 66° SE visible
11 Apr ? 05:45:50 10° NW 05:47:36 12° WNW 05:49:21 10° W visible
12 Apr ? 04:18:58 10° NNE 04:23:11 89° WNW 04:23:47 65° SSW visible
13 Apr ? 02:56:33 10° ENE 02:57:43 11° E 02:57:56 11° E visible
13 Apr ? 04:29:37 10° N 04:33:49 69° WNW 04:34:40 52° SW visible
14 Apr ? 03:06:10 10° ENE 03:08:28 14° E 03:08:50 14° E visible
14 Apr ? 04:40:19 10° N 04:44:25 53° WNW 04:45:33 39° WSW visible
15 Apr ? 03:16:15 10° NE 03:19:12 18° E 03:19:43 18° ESE visible
15 Apr ? 04:51:04 10° N 04:55:00 41° WNW 04:56:26 30° WSW visible
16 Apr ? 03:26:32 10° NE 03:29:55 23° E 03:30:36 22° ESE visible
16 Apr ? 05:01:50 10° N 05:05:35 32° WNW 05:07:19 23° WSW visible
17 Apr ? 03:36:54 10° NE 03:40:37 30° E 03:41:28 27° ESE visible
17 Apr ? 05:12:40 10° N 05:16:08 25° WNW 05:18:12 17° WSW visible
18 Apr ? 03:47:21 10° NNE 03:51:17 38° E 03:52:21 32° SE visible
18 Apr ? 05:23:33 10° NNW 05:26:40 20° WNW 05:29:04 13° WSW visible
19 Apr ? 03:57:51 10° NNE 04:01:57 50° E 04:03:12 37° SSE visible
19 Apr ? 05:34:32 10° NNW 05:37:11 16° WNW 05:39:49 10° WSW visible
20 Apr ? 04:08:24 10° NNE 04:12:36 66° ESE 04:14:05 38° S visible
20 Apr ? 05:45:42 10° NNW 05:47:41 13° WNW 05:49:40 10° W visible
